[Iaude] MPEC D77: 2024 DY [a=1.54,e=0.47,i=0.7,H=29.1]
    mpec at cfa.harvard.edu 
    mpec at cfa.harvard.edu
       
    Mon Feb 19 22:17:02 EST 2024
    
    
  
M.P.E.C. 2024-D77                             Issued 2024 February 20, 03:15 UT
     The Minor Planet Electronic Circulars contain information on unusual
         minor planets, routine data on comets and natural satellites,
         and occasional editorial announcements.  They are published
    on behalf of Division F of the International Astronomical Union by the
          Minor Planet Center, Smithsonian Astrophysical Observatory,
                          Cambridge, MA 02138, U.S.A.
			  
             Prepared using the Tamkin Foundation Computer Network
                              MPC at CFA.HARVARD.EDU
            URL https://www.minorplanetcenter.net/    ISSN 1523-6714
                                    2024 DY                                     
Observations:
     K24D00Y*1C2024 02 19.36610811 55 32.180+10 30 44.70         18.80GVED077G96
     K24D00Y 1C2024 02 19.37122811 55 06.610+10 30 01.40               VED077G96
     K24D00Y 1C2024 02 19.37635411 54 41.450+10 29 18.70         18.90GVED077G96
     K24D00Y 1C2024 02 19.38148611 54 16.500+10 28 35.90               VED077G96
     K24D00Y  C2024 02 19.40972011 51 59.856+10 24 00.71         18.1 GVED077H01
     K24D00Y KC2024 02 19.41194711 51 55.548+10 24 26.60         18.76GVED077I52
     K24D00Y KC2024 02 19.41400411 51 46.429+10 24 09.68         18.91GVED077I52
     K24D00Y  C2024 02 19.41405411 51 40.656+10 23 25.39         18.2 GVED077H01
     K24D00Y KC2024 02 19.41606511 51 37.332+10 23 53.59         18.76GVED077I52
     K24D00Y KC2024 02 19.41812911 51 28.202+10 23 36.46         19.08GVED077I52
     K24D00Y  C2024 02 19.42297911 51 01.865+10 22 13.07         18.4 GVED077H01
     K24D00Y  C2024 02 19.43253211 50 21.357+10 20 56.40         18.3 GVED077H01
     K24D00Y KC2024 02 19.52816311 44 33.520+10 09 33.30               VED077I52
     K24D00Y KC2024 02 19.53000011 44 27.540+10 09 19.70         19.20GVED077I52
     K24D00Y KC2024 02 19.53185711 44 21.700+10 09 06.50               VED077I52
     K24D00Y KC2024 02 19.80554 11 35 57.23 +09 50 23.9          19.8 rZED077C97
     K24D00Y KC2024 02 19.81204 11 35 43.54 +09 50 00.8          19.5 rZED077C97
     K24D00Y KC2024 02 19.81822 11 35 30.59 +09 49 41.2          19.2 rZED077C97
     K24D00Y KC2024 02 19.90457811 33 15.048+09 38 36.79         19.1 GVED077K63
     K24D00Y KC2024 02 19.91718311 32 53.694+09 38 04.23         18.8 GVED077K63
     K24D00Y KC2024 02 19.92958011 32 29.90 +09 37 19.7          19.2 GVED077L01
     K24D00Y KC2024 02 19.93113311 32 27.30 +09 37 15.8          19.3 GVED077L01
     K24D00Y KC2024 02 19.93269411 32 24.65 +09 37 11.9          19.4 GVED077L01
     K24D00Y KC2024 02 19.93425511 32 22.02 +09 37 08.0          19.3 GVED077L01
     K24D00Y KC2024 02 19.93581211 32 19.44 +09 37 03.9          19.3 GVED077L01
Observer details:
C97 Al-Fulaij Observatory, Oman.  Observers A. Al-Haji, N. Al-Umairi, A. Al-
    Ruqaishi.  0.61-m f/7.8 reflector + CCD.
G96 Mt. Lemmon Survey.  Observers T. Beuden, G. J. Leonard.  Measurers T.
    Beuden, V. F. Carvajal, D. Fay, J. B. Fazekas, D. C. Fuls, A. R. Gibbs, A.
    D. Grauer, H. Groeller, J. K. Hogan, R. A. Kowalski, S. M. Larson, G. J.
    Leonard, D. Rankin, R. L. Seaman, F. C. Shelly, K. W. Wierzchos.  1.5-m
    reflector + 10K CCD.
H01 Magdalena Ridge Observatory, Socorro.  Observers W. H. Ryan, E. V. Ryan.
    Measurer W. H. Ryan.  2.4-m f/8.9 Ritchey-Chretien + CCD.
I52 Steward Observatory, Mt. Lemmon Station.  Observer J. B. Fazekas.
    Measurers E. C. Beshore, D. Fay, J. B. Fazekas, D. C. Fuls, A. R. Gibbs,
    A. D. Grauer, H. Groeller, J. K. Hogan, R. A. Kowalski, S. M. Larson, G.
    J. Leonard, D. Rankin, R. L. Seaman, F. C. Shelly, K. W. Wierzchos.  1.0-m
    prime focus + CCD.
K63 G. Pascoli Observatory, Castelvecchio Pascoli.  Observer R. Bacci.  0.41-m
    f/3.75 Reflector + CCD.
L01 Visnjan Observatory, Tican.  Observer K. Korlevic.  1.0-m f/2.9 reflector
    + CCD.
Orbital elements:
2024 DY                                                  Earth MOID = 0.0006 AU
Epoch 2024 Mar. 31.0 TT = JDT 2460400.5                 Veres                   
M  44.60991              (2000.0)            P               Q                  
n   0.51762797     Peri.  299.07290     +0.08162051     -0.99664062             
a   1.5362347      Node   146.24332     +0.91859249     +0.07259742             
e   0.4722604      Incl.    0.69607     +0.38668582     +0.03790899             
P   1.90           H   29.11          G   0.15           U   7                  
Residuals in seconds of arc
240219 G96  1.3+  0.5+    240219 I52  1.1-  0.2-    240219 K63 (2.6-  0.4+)
240219 G96  0.3-  0.0     240219 H01  0.1+  0.1-    240219 K63  0.4-  0.1+
240219 G96  0.3-  0.0     240219 H01  0.2-  0.1-    240219 L01  0.3-  0.3+
240219 G96  1.6-  0.2-    240219 I52  0.3+  0.7-    240219 L01  0.1-  0.4+
240219 H01  0.3+  0.1+    240219 I52  1.6-  1.0-    240219 L01  0.4-  0.6+
240219 I52  0.2-  0.0     240219 I52  1.0-  0.9-    240219 L01  0.5-  0.7+
240219 I52  0.0   0.2-    240219 C97  0.6+  0.5-    240219 L01  0.0   0.7+
240219 H01  0.0   0.1+    240219 C97  1.0+  2.1-
240219 I52  0.0   0.3+    240219 C97  1.2+  1.3-
Ephemeris:
2024 DY                  a,e,i = 1.54, 0.47, 1                   q = 0.8107
Date    TT    R. A. (2000) Decl.     Delta      r    Elong.  Phase     V
2024 01 21    22 54 24.5 -09 48 23   0.2020  0.8424    41.1   129.8    31.0
...
2024 02 05    23 03 50.2 -08 51 46   0.09235 0.9057    28.4   148.8    31.9
...
2024 02 13    23 01 47.8 -08 31 02   0.03778 0.9518    20.0   159.2    32.6
...
2024 02 19    12 45 27.0 +12 15 27   0.0026570.9904   141.1    38.8    17.8
2024 02 20    11 30 28.4 +09 43 37   0.0091530.9972   160.2    19.6    19.9
2024 02 21    11 18 10.3 +09 12 06   0.01580 1.0040   164.1    15.6    21.0
...
2024 02 27    11 05 46.7 +08 39 54   0.05608 1.0458   172.9     6.7    23.5
...
2024 03 06    11 02 49.1 +08 33 29   0.1116  1.1036   177.0     2.7    24.9
...
2024 03 21    11 02 30.7 +08 14 02   0.2267  1.2146   163.0    13.9    27.1
M. P. C. Staff               (C) Copyright 2024 MPC           M.P.E.C. 2024-D77
    
    
More information about the Iaude
mailing list